TIME,DELAY(SENSOR),PRES,OXYGEN,RAWTEMP,T(OPTODE),TCPHASE,FLUOR,BETA(BETA700),BETA(BETA412),BETA(BETA440),CDOM,C(CSC),ED(ED412.20),ED(ED444.00),ED(ED489.60),ED(ED554.30),LU(LU412.10),LU(LU443.90),LU(LU489.70),LU(LU554.70),COMP,TILTX,TILTY,CHECK
1340421176,5810,899.0999755859375000,36.8805198669433600,565.1179199218750000,4.3271751403808590,56.0380287170410160,55,100,100,79,84,15557,0,0,0,0,2147123684,2147777481,2147569325,2147572315,1902,3,13,1866
1340424772,5810,979.8499755859375000,44.1626510620117200,571.3707275390625000,4.1329569816589355,55.0204887390136700,53,103,100,79,84,15552,0,0,0,0,2147121828,2147778925,2147570816,2147572178,3428,3,13,11817
1340428372,5810,990.2700195312500000,40.5557289123535160,574.8734741210938000,4.0240139961242680,55.5843315124511700,54,98,101,77,83,15557,0,0,0,0,2147121993,2147780288,2147575378,2147570669,3526,3,13,30810
1340431972,5810,995.6799926757812000,39.9780998229980500,574.7952880859375000,4.0264468193054200,55.6719398498535160,55,108,101,78,82,15554,0,0,0,0,2147122386,2147775844,2147577938,2147572205,396,3,13,46312
1340435572,5813,1004.5800170898438000,40.9023017883300800,575.7258300781250000,3.9974880218505860,55.5445709228515600,55,100,100,78,84,15543,0,0,0,0,2147124370,2147777828,2147575021,2147573513,3121,3,13,47416
1340439172,5809,1016.1699829101562000,40.5553283691406250,574.6860961914062000,4.0298438072204590,55.5810317993164060,56,99,101,78,84,15545,0,0,0,0,2147122121,2147777920,2147570550,2147570989,3533,3,13,25488
1340442772,5814,1015.4899902343750000,39.1609802246093750,574.0473022460938000,4.0497188568115230,55.7861518859863300,56,98,102,79,84,15550,0,0,0,0,2147120457,2147775762,2147569737,2147570450,60,3,13,58691
1340446372,5809,1010.9699707031250000,38.4024505615234400,573.7274169921875000,4.0596709251403810,55.8940315246582000,54,98,102,78,83,15548,0,0,0,0,2147120265,2147781110,2147572160,2147570441,8,3,13,18394
1340449972,5810,1013.9099731445312000,39.3344802856445300,574.7462158203125000,4.0279731750488280,55.7674598693847660,54,100,101,78,83,15548,0,0,0,0,2147122669,2147775040,2147574308,2147573659,269,3,13,46450
1340453572,5811,1013.6799926757812000,40.3781700134277340,575.1690063476562000,4.0148181915283200,55.6169013977050800,55,100,103,78,83,15546,0,0,0,0,2147123273,2147777499,2147570550,2147574582,3466,3,13,56809
1340457172,5807,1015.0399780273438000,40.3156890869140600,574.7645263671875000,4.0274071693420410,55.6210403442382800,55,98,102,77,83,15550,0,0,0,0,2147121024,2147775094,2147573449,2147572699,228,3,13,60222
1340460772,5810,1015.8400268554688000,39.8634796142578100,575.0554809570312000,4.0183510780334470,55.6878700256347660,55,98,101,79,83,15548,0,0,0,0,2147123273,2147773174,2147570816,2147570614,175,3,13,65442
1340464372,5810,1013.2100219726562000,40.1829605102539060,575.8048706054688000,3.9950261116027830,55.6486587524414060,55,99,102,78,83,15550,0,0,0,0,2147122358,2147780059,2147571501,2147571629,193,3,13,19955
1340467972,5808,1016.1699829101562000,40.4083595275878900,576.3665161132812000,3.9775469303131104,55.6263999938964840,55,104,100,78,84,15548,0,0,0,0,2147125412,2147770477,2147572205,2147568064,250,3,13,23354
1340471572,5808,1008.5399780273438000,40.0263099670410160,576.3355712890625000,3.9785079956054688,55.6781311035156250,55,100,101,77,83,15547,0,0,0,0,2147124178,2147776859,2147572854,2147571803,389,3,13,10440
1340475172,5809,1013.9299926757812000,40.7385482788085940,576.5679931640625000,3.9712729454040527,55.5752983093261700,56,98,101,77,83,15545,0,0,0,0,2147124470,2147780461,2147578084,2147570633,69,3,13,62956
1340478772,5808,1019.3400268554688000,40.6236915588378900,576.3657226562500000,3.9775710105895996,55.5883712768554700,56,97,100,79,83,15548,0,0,0,0,2147124160,2147772534,2147573449,2147569728,3492,3,13,9400
1340482372,5808,1022.5800170898438000,40.1061706542968750,575.2291870117188000,4.0129451751708980,55.6535301208496100,55,98,102,77,84,15549,0,0,0,0,2147119945,2147774235,2147574290,2147570084,166,3,13,47772
1340485972,5807,1023.9799804687500000,39.7393608093261700,575.2114868164062000,4.0134940147399900,55.7088508605957000,56,99,100,78,82,15537,0,0,0,0,2147119872,2147775936,2147572452,2147573814,198,3,13,49586
1340489572,5809,1027.0500488281250000,40.1852493286132800,575.4183959960938000,4.0070548057556150,55.6478614807128900,56,98,102,78,84,15548,0,0,0,0,2147121179,2147779638,2147574336,2147569216,22,3,13,52641
1340493172,5807,1020.7299804687500000,39.6124992370605500,575.1337890625000000,4.0159130096435550,55.7267112731933600,55,98,101,77,83,15544,0,0,0,0,2147120365,2147775469,2147573302,2147572187,829,3,13,45507
1340496772,5809,1018.4000244140625000,39.5847206115722660,575.5582275390625000,4.0027050971984860,55.7333488464355500,55,100,103,78,83,15545,0,0,0,0,2147121060,2147772873,2147575643,2147571282,370,3,13,49304
1340500372,5809,1015.1300048828125000,40.0848312377929700,576.8953857421875000,3.9610810279846190,55.6733283996582000,55,99,102,79,83,15546,0,0,0,0,2147123849,2147775232,2147575926,2147570349,3584,3,13,43831
1340503972,5810,1016.5000000000000000,40.6043891906738300,577.4896240234375000,3.9425768852233887,55.6049385070800800,55,98,101,78,83,15547,0,0,0,0,2147124452,2147779620,2147574720,2147575168,203,3,13,13670
1340507572,5812,1017.7100219726562000,40.6464805603027340,577.2183837890625000,3.9510209560394287,55.5951385498046900,55,97,100,77,83,15546,0,0,0,0,2147120182,2147774683,2147572562,2147572160,14,3,13,38638
1340511172,5813,1020.0800170898438000,41.0771102905273440,577.1245117187500000,3.9539470672607420,55.5319595336914060,54,98,102,79,83,15542,0,0,0,0,2147121929,2147780781,2147571849,2147571008,3564,3,13,26114
1340514772,5810,1019.4799804687500000,39.6169395446777340,575.7410888671875000,3.9970130920410156,55.7349815368652340,55,98,102,78,84,15545,0,0,0,0,2147126656,2147777115,2147572873,2147569993,434,3,13,21123
1340518372,5810,1022.2500000000000000,39.3117599487304700,575.7136230468750000,3.9978680610656740,55.7773208618164060,55,98,101,77,83,15541,0,0,0,0,2147120841,2147775734,2147574473,2147570980,443,3,13,50563
1340521972,5810,1030.8299560546875000,39.9386711120605500,575.3801269531250000,4.0082468986511230,55.6854400634765600,55,98,102,78,83,15540,0,0,0,0,2147123346,2147778057,2147571830,2147571282,272,3,13,22381
1340525572,5810,1026.5899658203125000,39.4113388061523440,574.8956909179688000,4.0233230590820310,55.7524604797363300,56,100,101,76,83,15540,0,0,0,0,2147125138,2147778349,2147572397,2147572617,14,3,13,5983
1340529172,5807,1029.2800292968750000,39.3624687194824200,574.6510009765625000,4.0309348106384280,55.7619590759277340,55,97,101,85,84,15539,0,0,0,0,2147126738,2147778788,2147569133,2147571218,3591,3,13,42943
1340532772,5808,1025.9499511718750000,38.9724807739257800,574.5979003906250000,4.0325889587402340,55.8159294128418000,55,99,102,78,84,15539,0,0,0,0,2147121472,2147778075,2147575067,2147572507,243,3,13,50757
1340536372,5810,1021.9299926757812000,39.8876495361328100,575.1403198242188000,4.0157132148742680,55.6863899230957000,55,98,102,78,84,15536,0,0,0,0,2147123337,2147777078,2147571958,2147571830,827,3,13,25002
1340539972,5811,1021.4600219726562000,39.5147209167480500,575.9591064453125000,3.9902269840240480,55.7512016296386700,54,99,102,78,83,15536,0,0,0,0,2147124708,2147774811,2147570587,2147574738,228,3,13,2477
1340543572,5810,1021.6599731445312000,40.2327117919921900,576.2294921875000000,3.9818120002746580,55.6503791809082000,57,97,102,78,83,15536,0,0,0,0,2147122450,2147778230,2147567588,2147572086,115,3,13,34891
1340547172,5810,1019.3599853515625000,39.8268699645996100,576.5894775390625000,3.9706020355224610,55.7130317687988300,55,101,101,80,84,15531,0,0,0,0,2147123766,2147776530,2147573924,2147571885,297,3,13,21516
1340550772,5810,1022.5100097656250000,41.1274108886718750,576.6287231445312000,3.9693849086761475,55.5189590454101560,54,98,101,78,84,15535,0,0,0,0,2147121508,2147779154,2147571748,2147571300,3594,3,13,34970
1340554372,5809,1018.3599853515625000,41.4558296203613300,577.8314819335938000,3.9319310188293457,55.4849586486816400,55,99,100,78,83,15533,0,0,0,0,2147122422,2147775561,2147569170,2147573220,505,3,13,17153
1340557972,5810,1020.7700195312500000,41.8684692382812500,577.7719726562500000,3.9337830543518066,55.4214897155761700,55,98,101,78,83,15531,0,0,0,0,2147126180,2147771949,2147574912,2147569581,91,3,13,44611
1340561572,5812,1023.2500000000000000,41.5394515991210940,577.2583007812500000,3.9497809410095215,55.4669990539550800,54,98,103,77,84,15526,0,0,0,0,2147124736,2147778596,2147567625,2147573302,16,3,13,30584
1340565172,5806,1024.6500244140625000,40.2329216003418000,576.4553222656250000,3.9747829437255860,55.6531715393066400,55,97,100,78,85,15526,0,0,0,0,2147122596,2147774665,2147568155,2147571446,147,3,13,57057
1340565957,5811,1024.9300537109375000,40.4080390930175800,576.4987792968750000,3.9734270572662354,55.6256294250488300,56,97,102,78,83,15525,0,0,0,0,2147123885,2147781613,2147578614,2147573494,13,3,13,62020
